STARLINK-34223, 64336

Orbit data source: Space-Track

STARLINK-34223, 64336 is a payload satellite owned by SpaceX/Seattle (US) in LEO that was launched on Tue, 10 Jun 2025 UTC via an FALCON 9 launch vehicle from the Air Force Eastern Test Range (AFETR). Payload-class satellites include a variety of spacecraft equipped with specific instruments for various scientific and technological missions. These include communications satellites like Starlink; space stations such as the ISS; scientific satellites like the Hubble; Earth observation satellites from companies like Planet Labs, Umbra, and HawkEye 360; GPS; miniature CubeSats for education and research; and military/defense satellites.

Loading next visibility...
Identifier
64336, 2025-124V
Orbit
LEO
Country
Flag of USUS
Related business
Manufacturer
SpaceX/Seattle
Mission
Operational Commercial Communications
Bus & Motor
STARLINK V2MO, Unknown motor
Mass
575 kg wet, ~530 kg dry
Launch date (UTC)
Icon of a cake. It is the launch day of the satellite!2025-06-10 (1 year ago)
Launch vehicle
FALCON 9
Launch site
Air Force Eastern Test Range (AFETR)
Object type
Payload
Rocket body
Debris
Shape & HBR
Box + 2 Pan, 17.7 m
Radar Cross Section
36.964 m², Large (>1 m²)

Expand to show TLE details & history
Last TLE update: 1 week ago

TLE from 1 week ago
0 STARLINK-34223
1 64336U 25124V   26151.98950962  .00020145  00000-0  73919-3 0  9993
2 64336  43.0043   7.4994 0001632 242.1333 117.9353 15.27597204 54562
Epoch: 2026-05-31T23:44Z
TLE epoch observation values (Epoch: 2026-05-31T23:44:53.631Z)
Latitude
-0.00004°
Longitude
121.79263°
Altitude
483.298 km
Speed
7.625 km/s
True Right ascension
00h 29m 59s
True Declination
0° 00' 00"
Sunlit
Object was in daylight at epoch
Visualization orbit readout
Latitude
Unknown
Longitude
Unknown
Altitude
Unknown
Speed
Unknown
Apparent Right ascension
Unknown
Apparent Declination
Unknown
Sunlit
N/A
Visualization observer readout
Local Sidereal Time
14:08:27
Azimuth
Unknown
Elevation
Unknown
Doppler factor
Unknown
Orbital elements
Apogee altitude
486.062 km
Perigee altitude
483.822 km
Semi-major axis
6,863.079 km
Eccentricity
0.00016
Inclination
43.0043°
RAAN
7.4994°
Arg. of periapsis
242.1333°
True anomaly
117.95182°
Mean anomaly
117.9353°
Eccentric anomaly
117.94356°
Mean motion
3.81737 °/min
Orbital period
94.31 mins
BSTAR
0.00073919
Loading maneuver chart data...
Computing Atmospheric mass density...
Loading historical data...
Loading historical data...
Loading historical data...
Loading historical data...
Loading historical data...
Loading historical data...
Loading historical data...

Documentation

Showing up to 5 results
|